| time (UTC) | temp C | wind direction | speed KPH | gust KPH | rain 1hr cm | rain 24hr cm | rain mn cm | humidity % | barometer mb |
| 20260901031006 | 23 | 29 | 0.0 | 4.8 | 0.00 | 0.00 | 0.00 | 86 | 1017.7 |
| 20260901030506 | 23 | 29 | 0.0 | 4.8 | 0.00 | 0.00 | 0.00 | 86 | 1017.5 |
| 20260901030016 | 23 | 29 | 1.6 | 4.8 | 0.00 | 0.00 | 0.00 | 85 | 1017.6 |
| 20260901025509 | 23 | 29 | 0.0 | 3.2 | 0.00 | 0.00 | 0.00 | 85 | 1017.8 |
| 20260901025004 | 23 | 29 | 0.0 | 4.8 | 0.00 | 0.00 | 0.00 | 84 | 1017.9 |
| 20260901024518 | 23 | 29 | 1.6 | 4.8 | 0.00 | 0.00 | 0.00 | 84 | 1017.9 |
| 20260901024009 | 23 | 49 | 1.6 | 6.4 | 0.00 | 0.00 | 0.00 | 84 | 1018.0 |
| 20260901023511 | 24 | 61 | 3.2 | 6.4 | 0.00 | 0.00 | 0.00 | 84 | 1018.1 |
| 20260901023019 | 24 | 82 | 0.0 | 6.4 | 0.00 | 0.00 | 0.00 | 84 | 1018.1 |
| 20260901022514 | 24 | 77 | 1.6 | 4.8 | 0.00 | 0.00 | 0.00 | 84 | 1018.3 |
| 20260901022017 | 24 | 98 | 1.6 | 4.8 | 0.00 | 0.00 | 0.00 | 83 | 1018.1 |
| 20260901021516 | 24 | 24 | 1.6 | 4.8 | 0.00 | 0.00 | 0.00 | 83 | 1017.9 |
| 20260901021008 | 24 | 26 | 0.0 | 3.2 | 0.00 | 0.00 | 0.00 | 83 | 1018.0 |
| 20260901020506 | 25 | 26 | 0.0 | 4.8 | 0.00 | 0.00 | 0.00 | 82 | 1017.9 |
| 20260901020011 | 25 | 26 | 1.6 | 4.8 | 0.00 | 0.00 | 0.00 | 82 | 1017.7 |
| 20260901015506 | 25 | 87 | 1.6 | 4.8 | 0.00 | 0.00 | 0.00 | 82 | 1017.9 |
| 20260901015011 | 25 | 54 | 1.6 | 9.7 | 0.00 | 0.00 | 0.00 | 82 | 1017.9 |
| 20260901014536 | 25 | 98 | 3.2 | 9.7 | 0.00 | 0.00 | 0.00 | 82 | 1018.0 |
| 20260901014011 | 25 | 101 | 3.2 | 8.0 | 0.00 | 0.00 | 0.00 | 81 | 1017.8 |
| 20260901013506 | 25 | 57 | 3.2 | 8.0 | 0.00 | 0.00 | 0.00 | 81 | 1017.6 |
| 20260901013025 | 25 | 65 | 3.2 | 11.3 | 0.00 | 0.00 | 0.00 | 81 | 1017.5 |
| 20260901012511 | 25 | 18 | 6.4 | 11.3 | 0.00 | 0.00 | 0.00 | 81 | 1017.5 |
| 20260901012003 | 25 | 50 | 3.2 | 6.4 | 0.00 | 0.00 | 0.00 | 81 | 1017.5 |
| 20260901011523 | 25 | 61 | 3.2 | 11.3 | 0.00 | 0.00 | 0.00 | 81 | 1017.7 |
| 20260901011013 | 25 | 34 | 4.8 | 11.3 | 0.00 | 0.00 | 0.00 | 81 | 1017.9 |
| 20260901010515 | 25 | 53 | 3.2 | 8.0 | 0.00 | 0.00 | 0.00 | 82 | 1018.0 |
| 20260901010015 | 25 | 47 | 3.2 | 11.3 | 0.00 | 0.00 | 0.00 | 82 | 1018.1 |
| 20260901005512 | 25 | 67 | 4.8 | 11.3 | 0.00 | 0.00 | 0.00 | 82 | 1018.1 |
| 20260901005016 | 25 | 55 | 4.8 | 8.0 | 0.00 | 0.00 | 0.00 | 82 | 1018.2 |
| 20260901004517 | 25 | 85 | 4.8 | 11.3 | 0.00 | 0.00 | 0.00 | 82 | 1018.3 |
| 20260901004007 | 25 | 96 | 4.8 | 11.3 | 0.00 | 0.00 | 0.00 | 82 | 1018.3 |
| 20260901003509 | 25 | 105 | 4.8 | 11.3 | 0.00 | 0.00 | 0.00 | 82 | 1018.2 |
| 20260901003023 | 25 | 75 | 3.2 | 11.3 | 0.00 | 0.00 | 0.00 | 82 | 1018.2 |
| 20260901002506 | 25 | 52 | 4.8 | 9.7 | 0.00 | 0.00 | 0.00 | 83 | 1018.2 |
| 20260901002014 | 25 | 72 | 3.2 | 9.7 | 0.00 | 0.00 | 0.00 | 83 | 1018.2 |
| 20260901001536 | 26 | 46 | 3.2 | 8.0 | 0.00 | 0.00 | 0.00 | 83 | 1018.2 |
| 20260901001013 | 26 | 78 | 3.2 | 8.0 | 0.00 | 0.00 | 0.00 | 83 | 1018.1 |
| 20260901000509 | 26 | 69 | 1.6 | 6.4 | 0.00 | 0.00 | 0.00 | 82 | 1018.1 |
| 20260901000028 | 26 | 101 | 3.2 | 6.4 | 0.00 | 0.00 | 0.00 | 82 | 1018.2 |
| 20260831235517 | 26 | 80 | 1.6 | 4.8 | 0.00 | 0.00 | 0.00 | 82 | 1018.2 |
| 20260831235014 | 26 | 80 | 1.6 | 4.8 | 0.00 | 0.00 | 0.00 | 81 | 1018.3 |
| 20260831234524 | 27 | 80 | 0.0 | 3.2 | 0.00 | 0.00 | 0.00 | 80 | 1018.4 |
| 20260831234014 | 27 | 80 | 1.6 | 3.2 | 0.00 | 0.00 | 0.00 | 79 | 1018.4 |
| 20260831233516 | 27 | 80 | 0.0 | 3.2 | 0.00 | 0.00 | 0.00 | 79 | 1018.4 |
| 20260831233016 | 27 | 80 | 0.0 | 4.8 | 0.00 | 0.00 | 0.00 | 78 | 1018.3 |
| 20260831232508 | 27 | 80 | 0.0 | 4.8 | 0.00 | 0.00 | 0.00 | 77 | 1018.4 |
| 20260831232009 | 27 | 80 | 0.0 | 0.0 | 0.00 | 0.00 | 0.00 | 77 | 1018.4 |
| 20260831231526 | 28 | 80 | 0.0 | 3.2 | 0.00 | 0.00 | 0.00 | 77 | 1018.4 |
| 20260831231011 | 28 | 80 | 0.0 | 3.2 | 0.00 | 0.00 | 0.00 | 77 | 1018.4 |
| 20260831230512 | 28 | 80 | 1.6 | 3.2 | 0.00 | 0.00 | 0.00 | 77 | 1018.3 |
| 20260831230028 | 28 | 80 | 0.0 | 3.2 | 0.00 | 0.00 | 0.00 | 76 | 1018.3 |
| 20260831225521 | 28 | 80 | 0.0 | 1.6 | 0.00 | 0.00 | 0.00 | 74 | 1018.2 |
| 20260831225013 | 28 | 80 | 0.0 | 3.2 | 0.00 | 0.00 | 0.00 | 76 | 1018.3 |
| 20260831224530 | 28 | 80 | 0.0 | 3.2 | 0.00 | 0.00 | 0.00 | 74 | 1018.3 |
| 20260831224020 | 28 | 80 | 0.0 | 3.2 | 0.00 | 0.00 | 0.00 | 73 | 1018.2 |
| 20260831223510 | 29 | 80 | 0.0 | 4.8 | 0.00 | 0.00 | 0.00 | 72 | 1018.2 |
| 20260831223030 | 29 | 80 | 1.6 | 4.8 | 0.00 | 0.00 | 0.00 | 71 | 1018.3 |
| 20260831222517 | 29 | 80 | 0.0 | 3.2 | 0.00 | 0.00 | 0.00 | 71 | 1018.3 |
| 20260831222017 | 29 | 80 | 0.0 | 1.6 | 0.00 | 0.00 | 0.00 | 69 | 1018.1 |
| 20260831221524 | 30 | 127 | 0.0 | 0.0 | 0.00 | 0.00 | 0.00 | 70 | 1018.2 |
| 20260831221009 | 30 | 127 | 0.0 | 0.0 | 0.00 | 0.00 | 0.00 | 70 | 1018.2 |
| 20260831220513 | 29 | 127 | 0.0 | 0.0 | 0.00 | 0.00 | 0.00 | 71 | 1018.3 |
| 20260831220027 | 29 | 127 | 0.0 | 3.2 | 0.00 | 0.00 | 0.00 | 68 | 1018.3 |
| 20260831215513 | 30 | 127 | 0.0 | 3.2 | 0.00 | 0.00 | 0.00 | 69 | 1018.5 |
| 20260831215014 | 30 | 116 | 0.0 | 4.8 | 0.00 | 0.00 | 0.00 | 69 | 1018.4 |
| 20260831214530 | 29 | 116 | 0.0 | 6.4 | 0.00 | 0.00 | 0.00 | 69 | 1018.4 |
| 20260831214012 | 29 | 116 | 0.0 | 9.7 | 0.00 | 0.00 | 0.00 | 70 | 1018.4 |
| 20260831213516 | 29 | 120 | 0.0 | 9.7 | 0.00 | 0.00 | 0.00 | 70 | 1018.5 |
| 20260831213034 | 29 | 110 | 1.6 | 6.4 | 0.00 | 0.00 | 0.00 | 70 | 1018.6 |
| 20260831212519 | 28 | 96 | 1.6 | 6.4 | 0.00 | 0.00 | 0.00 | 71 | 1018.7 |
| 20260831212015 | 28 | 135 | 0.0 | 6.4 | 0.00 | 0.00 | 0.00 | 73 | 1018.7 |
| 20260831211531 | 28 | 125 | 1.6 | 11.3 | 0.00 | 0.00 | 0.00 | 73 | 1018.6 |
| 20260831211021 | 28 | 97 | 3.2 | 11.3 | 0.00 | 0.00 | 0.00 | 73 | 1018.5 |
| 20260831210517 | 28 | 94 | 4.8 | 11.3 | 0.00 | 0.00 | 0.00 | 73 | 1018.4 |
| 20260831210028 | 28 | 109 | 4.8 | 11.3 | 0.00 | 0.00 | 0.00 | 73 | 1018.4 |
| 20260831205510 | 28 | 101 | 1.6 | 4.8 | 0.00 | 0.00 | 0.00 | 74 | 1018.3 |
| 20260831205012 | 28 | 101 | 1.6 | 4.8 | 0.00 | 0.00 | 0.00 | 73 | 1018.2 |
| 20260831204530 | 28 | 101 | 0.0 | 3.2 | 0.00 | 0.00 | 0.00 | 71 | 1018.1 |
| 20260831204004 | 28 | 101 | 0.0 | 4.8 | 0.00 | 0.00 | 0.00 | 72 | 1018.1 |
| 20260831203504 | 28 | 101 | 0.0 | 8.0 | 0.00 | 0.00 | 0.00 | 70 | 1018.2 |
| 20260831203004 | 28 | 89 | 1.6 | 11.3 | 0.00 | 0.00 | 0.00 | 68 | 1018.1 |
| 20260831202502 | 29 | 76 | 4.8 | 11.3 | 0.00 | 0.00 | 0.00 | 66 | 1018.0 |
| 20260831202003 | 29 | 63 | 4.8 | 12.9 | 0.00 | 0.00 | 0.00 | 65 | 1018.0 |
| 20260831201516 | 30 | 84 | 4.8 | 16.1 | 0.00 | 0.00 | 0.00 | 64 | 1018.3 |
| 20260831201002 | 30 | 126 | 6.4 | 16.1 | 0.00 | 0.00 | 0.00 | 63 | 1018.3 |
| 20260831200504 | 30 | 85 | 8.0 | 14.5 | 0.00 | 0.00 | 0.00 | 64 | 1018.3 |
| 20260831200013 | 30 | 97 | 6.4 | 14.5 | 0.00 | 0.00 | 0.00 | 63 | 1018.5 |
| 20260831195510 | 30 | 49 | 4.8 | 14.5 | 0.00 | 0.00 | 0.00 | 63 | 1018.5 |
| 20260831195002 | 30 | 76 | 6.4 | 17.7 | 0.00 | 0.00 | 0.00 | 63 | 1018.6 |
| 20260831194505 | 30 | 96 | 6.4 | 17.7 | 0.00 | 0.00 | 0.00 | 65 | 1018.6 |
| 20260831194002 | 30 | 114 | 3.2 | 17.7 | 0.00 | 0.00 | 0.00 | 66 | 1018.7 |
| 20260831193503 | 30 | 93 | 3.2 | 14.5 | 0.00 | 0.00 | 0.00 | 65 | 1018.8 |
| 20260831193006 | 30 | 109 | 3.2 | 12.9 | 0.00 | 0.00 | 0.00 | 64 | 1018.8 |
| 20260831192503 | 30 | 152 | 4.8 | 12.9 | 0.00 | 0.00 | 0.00 | 63 | 1018.9 |
| 20260831192005 | 30 | 168 | 6.4 | 16.1 | 0.00 | 0.00 | 0.00 | 63 | 1018.9 |
| 20260831191504 | 30 | 71 | 4.8 | 16.1 | 0.00 | 0.00 | 0.00 | 66 | 1018.9 |
| 20260831191003 | 31 | 132 | 3.2 | 14.5 | 0.00 | 0.00 | 0.00 | 67 | 1019.0 |
| 20260831190504 | 31 | 94 | 4.8 | 16.1 | 0.00 | 0.00 | 0.00 | 63 | 1019.1 |
| 20260831190016 | 31 | 132 | 6.4 | 16.1 | 0.00 | 0.00 | 0.00 | 64 | 1019.2 |
| 20260831185503 | 30 | 101 | 6.4 | 14.5 | 0.00 | 0.00 | 0.00 | 66 | 1019.2 |
| 20260831185004 | 31 | 159 | 3.2 | 11.3 | 0.00 | 0.00 | 0.00 | 67 | 1019.3 |
| 20260831184519 | 31 | 59 | 4.8 | 9.7 | 0.00 | 0.00 | 0.00 | 66 | 1019.3 |
| 20260831184004 | 31 | 103 | 3.2 | 14.5 | 0.00 | 0.00 | 0.00 | 68 | 1019.3 |
| 20260831183506 | 30 | 99 | 3.2 | 14.5 | 0.00 | 0.00 | 0.00 | 71 | 1019.3 |
| 20260831183006 | 30 | 95 | 8.0 | 19.3 | 0.00 | 0.00 | 0.00 | 67 | 1019.4 |
| 20260831182504 | 30 | 122 | 4.8 | 19.3 | 0.00 | 0.00 | 0.00 | 67 | 1019.4 |
| 20260831182003 | 30 | 78 | 3.2 | 14.5 | 0.00 | 0.00 | 0.00 | 68 | 1019.5 |
| 20260831181508 | 30 | 97 | 6.4 | 16.1 | 0.00 | 0.00 | 0.00 | 68 | 1019.5 |
| 20260831181003 | 29 | 126 | 8.0 | 16.1 | 0.00 | 0.00 | 0.00 | 67 | 1019.5 |
| 20260831180503 | 29 | 50 | 9.7 | 16.1 | 0.00 | 0.00 | 0.00 | 69 | 1019.5 |
| 20260831180015 | 28 | 107 | 6.4 | 14.5 | 0.00 | 0.00 | 0.00 | 70 | 1019.6 |
| 20260831175508 | 28 | 104 | 3.2 | 14.5 | 0.00 | 0.00 | 0.00 | 72 | 1019.6 |
| 20260831175011 | 28 | 103 | 9.7 | 14.5 | 0.00 | 0.00 | 0.00 | 70 | 1019.6 |
| 20260831174508 | 28 | 128 | 4.8 | 11.3 | 0.00 | 0.00 | 0.00 | 70 | 1019.6 |
| 20260831174007 | 28 | 90 | 1.6 | 14.5 | 0.00 | 0.00 | 0.00 | 70 | 1019.6 |
| 20260831173510 | 28 | 69 | 4.8 | 14.5 | 0.00 | 0.00 | 0.00 | 69 | 1019.7 |
| 20260831173027 | 29 | 78 | 6.4 | 12.9 | 0.00 | 0.00 | 0.00 | 68 | 1019.6 |
| 20260831172505 | 29 | 84 | 4.8 | 17.7 | 0.00 | 0.00 | 0.00 | 68 | 1019.7 |
| 20260831172006 | 29 | 105 | 8.0 | 17.7 | 0.00 | 0.00 | 0.00 | 66 | 1019.6 |
| 20260831171506 | 30 | 105 | 9.7 | 16.1 | 0.00 | 0.00 | 0.00 | 67 | 1019.7 |
| 20260831171003 | 29 | 102 | 6.4 | 16.1 | 0.00 | 0.00 | 0.00 | 68 | 1019.7 |
| 20260831170503 | 29 | 110 | 4.8 | 17.7 | 0.00 | 0.00 | 0.00 | 67 | 1019.8 |
| 20260831170012 | 29 | 85 | 8.0 | 17.7 | 0.00 | 0.00 | 0.00 | 66 | 1019.8 |
| 20260831165506 | 29 | 106 | 6.4 | 16.1 | 0.00 | 0.00 | 0.00 | 68 | 1019.9 |
| 20260831165004 | 29 | 136 | 6.4 | 16.1 | 0.00 | 0.00 | 0.00 | 66 | 1019.9 |
| 20260831164519 | 29 | 67 | 8.0 | 16.1 | 0.00 | 0.00 | 0.00 | 65 | 1019.9 |
| 20260831164010 | 29 | 112 | 6.4 | 12.9 | 0.00 | 0.00 | 0.00 | 65 | 1019.8 |
| 20260831163510 | 29 | 86 | 4.8 | 12.9 | 0.00 | 0.00 | 0.00 | 66 | 1019.8 |
| 20260831163008 | 29 | 113 | 6.4 | 14.5 | 0.00 | 0.00 | 0.00 | 65 | 1019.8 |
| 20260831162508 | 29 | 15 | 6.4 | 14.5 | 0.00 | 0.00 | 0.00 | 65 | 1019.8 |
| 20260831162012 | 29 | 48 | 3.2 | 11.3 | 0.00 | 0.00 | 0.00 | 69 | 1019.8 |
| 20260831161533 | 28 | 69 | 4.8 | 9.7 | 0.00 | 0.00 | 0.00 | 71 | 1019.9 |
| 20260831161008 | 28 | 58 | 3.2 | 9.7 | 0.00 | 0.00 | 0.00 | 71 | 1019.9 |
| 20260831160510 | 28 | 71 | 1.6 | 11.3 | 0.00 | 0.00 | 0.00 | 73 | 1019.8 |
| 20260831160037 | 28 | 69 | 3.2 | 11.3 | 0.00 | 0.00 | 0.00 | 72 | 1019.8 |
| 20260831155505 | 27 | 17 | 1.6 | 11.3 | 0.00 | 0.00 | 0.00 | 73 | 1019.8 |
| 20260831155004 | 27 | 19 | 3.2 | 11.3 | 0.00 | 0.00 | 0.00 | 74 | 1019.8 |
| 20260831154540 | 27 | 56 | 6.4 | 9.7 | 0.00 | 0.00 | 0.00 | 77 | 1019.9 |
| 20260831154007 | 27 | 31 | 1.6 | 9.7 | 0.00 | 0.00 | 0.00 | 77 | 1019.9 |
| 20260831153505 | 26 | 46 | 4.8 | 9.7 | 0.00 | 0.00 | 0.00 | 78 | 1019.9 |
| 20260831153019 | 26 | 73 | 3.2 | 12.9 | 0.00 | 0.00 | 0.00 | 81 | 1019.9 |
| 20260831152511 | 26 | 61 | 3.2 | 12.9 | 0.00 | 0.00 | 0.00 | 81 | 1020.0 |
| 20260831152010 | 25 | 96 | 1.6 | 12.9 | 0.00 | 0.00 | 0.00 | 84 | 1020.0 |
| 20260831151520 | 25 | 80 | 4.8 | 11.3 | 0.00 | 0.00 | 0.00 | 84 | 1020.1 |
| 20260831151014 | 24 | 18 | 0.0 | 6.4 | 0.00 | 0.00 | 0.00 | 87 | 1020.0 |
| 20260831150513 | 23 | 352 | 3.2 | 6.4 | 0.00 | 0.00 | 0.00 | 88 | 1020.1 |
| 20260831150011 | 23 | 67 | 3.2 | 6.4 | 0.00 | 0.00 | 0.00 | 89 | 1020.1 |
| 20260831145507 | 23 | 30 | 1.6 | 6.4 | 0.00 | 0.00 | 0.00 | 89 | 1020.1 |
| 20260831145019 | 23 | 42 | 1.6 | 6.4 | 0.00 | 0.00 | 0.00 | 90 | 1020.2 |
| 20260831144534 | 23 | 61 | 3.2 | 6.4 | 0.00 | 0.00 | 0.00 | 90 | 1020.2 |
| 20260831144006 | 23 | 34 | 3.2 | 6.4 | 0.00 | 0.00 | 0.00 | 90 | 1020.2 |
| 20260831143508 | 23 | 44 | 1.6 | 6.4 | 0.00 | 0.00 | 0.00 | 90 | 1020.1 |
| 20260831143016 | 23 | 59 | 1.6 | 6.4 | 0.00 | 0.00 | 0.00 | 90 | 1020.1 |
| 20260831142508 | 22 | 40 | 1.6 | 6.4 | 0.00 | 0.00 | 0.00 | 90 | 1020.0 |
| 20260831142011 | 22 | 80 | 1.6 | 8.0 | 0.00 | 0.00 | 0.00 | 91 | 1020.0 |
| 20260831141523 | 22 | 58 | 3.2 | 8.0 | 0.00 | 0.00 | 0.00 | 91 | 1020.0 |
| 20260831141013 | 22 | 52 | 3.2 | 8.0 | 0.00 | 0.00 | 0.00 | 92 | 1020.0 |
| 20260831140508 | 22 | 28 | 3.2 | 6.4 | 0.00 | 0.00 | 0.00 | 92 | 1020.0 |
| 20260831140029 | 22 | 28 | 1.6 | 6.4 | 0.00 | 0.00 | 0.00 | 92 | 1020.0 |
| 20260831135516 | 22 | 98 | 1.6 | 6.4 | 0.00 | 0.00 | 0.00 | 92 | 1019.9 |
| 20260831135012 | 22 | 51 | 0.0 | 3.2 | 0.00 | 0.00 | 0.00 | 92 | 1019.9 |
| 20260831134525 | 22 | 51 | 0.0 | 1.6 | 0.00 | 0.00 | 0.00 | 92 | 1019.9 |
| 20260831134011 | 22 | 51 | 0.0 | 4.8 | 0.00 | 0.00 | 0.00 | 92 | 1019.9 |
| 20260831133513 | 22 | 51 | 0.0 | 4.8 | 0.00 | 0.00 | 0.00 | 92 | 1019.9 |
| 20260831133019 | 22 | 51 | 1.6 | 4.8 | 0.00 | 0.00 | 0.00 | 93 | 1019.8 |
| 20260831132513 | 22 | 5 | 1.6 | 6.4 | 0.00 | 0.00 | 0.00 | 93 | 1019.8 |
| 20260831132006 | 21 | 5 | 1.6 | 6.4 | 0.00 | 0.00 | 0.00 | 93 | 1019.8 |
| 20260831131521 | 21 | 348 | 1.6 | 6.4 | 0.00 | 0.00 | 0.00 | 93 | 1019.8 |
| 20260831131013 | 21 | 319 | 0.0 | 8.0 | 0.00 | 0.00 | 0.00 | 93 | 1019.9 |
| 20260831130510 | 21 | 346 | 0.0 | 8.0 | 0.00 | 0.00 | 0.00 | 94 | 1020.0 |
| 20260831130028 | 21 | 360 | 1.6 | 6.4 | 0.00 | 0.00 | 0.00 | 94 | 1020.0 |
| 20260831125513 | 21 | 20 | 0.0 | 6.4 | 0.00 | 0.00 | 0.00 | 94 | 1019.9 |
| 20260831125010 | 21 | 9 | 0.0 | 4.8 | 0.00 | 0.00 | 0.00 | 94 | 1019.9 |
| 20260831124529 | 21 | 27 | 1.6 | 4.8 | 0.00 | 0.00 | 0.00 | 95 | 1019.9 |
| 20260831124013 | 21 | 329 | 0.0 | 3.2 | 0.00 | 0.00 | 0.00 | 94 | 1019.8 |
| 20260831123509 | 21 | 329 | 0.0 | 3.2 | 0.00 | 0.00 | 0.00 | 95 | 1019.8 |
| 20260831123026 | 21 | 329 | 0.0 | 3.2 | 0.00 | 0.00 | 0.00 | 95 | 1019.8 |
| 20260831122516 | 21 | 329 | 0.0 | 3.2 | 0.00 | 0.00 | 0.00 | 95 | 1019.8 |
| 20260831122015 | 20 | 20 | 0.0 | 3.2 | 0.00 | 0.00 | 0.00 | 95 | 1019.8 |
| 20260831121518 | 20 | 20 | 1.6 | 3.2 | 0.00 | 0.00 | 0.00 | 95 | 1019.9 |
| 20260831121015 | 20 | 20 | 0.0 | 3.2 | 0.00 | 0.00 | 0.00 | 95 | 1019.9 |
| 20260831120516 | 20 | 20 | 0.0 | 4.8 | 0.00 | 0.00 | 0.00 | 95 | 1020.0 |
| 20260831120031 | 20 | 20 | 0.0 | 4.8 | 0.00 | 0.00 | 0.00 | 95 | 1019.9 |
| 20260831115513 | 20 | 360 | 1.6 | 4.8 | 0.00 | 0.00 | 0.00 | 95 | 1019.9 |
| 20260831115010 | 20 | 360 | 1.6 | 4.8 | 0.00 | 0.00 | 0.00 | 95 | 1019.9 |
| 20260831114543 | 20 | 360 | 0.0 | 4.8 | 0.00 | 0.00 | 0.00 | 95 | 1019.9 |
| 20260831114010 | 20 | 5 | 1.6 | 4.8 | 0.00 | 0.00 | 0.00 | 95 | 1019.9 |
| 20260831113514 | 20 | 29 | 0.0 | 6.4 | 0.00 | 0.00 | 0.00 | 94 | 1019.9 |
| 20260831113033 | 20 | 11 | 1.6 | 6.4 | 0.00 | 0.00 | 0.00 | 94 | 1019.9 |
| 20260831112508 | 20 | 22 | 1.6 | 4.8 | 0.00 | 0.00 | 0.00 | 94 | 1019.9 |
| 20260831112012 | 20 | 23 | 1.6 | 4.8 | 0.00 | 0.00 | 0.00 | 94 | 1019.7 |
| 20260831111513 | 20 | 33 | 1.6 | 4.8 | 0.00 | 0.00 | 0.00 | 94 | 1019.7 |
| 20260831111009 | 20 | 13 | 0.0 | 6.4 | 0.00 | 0.00 | 0.00 | 94 | 1019.6 |
| 20260831110510 | 20 | 22 | 1.6 | 8.0 | 0.00 | 0.00 | 0.00 | 94 | 1019.5 |
| 20260831110019 | 20 | 360 | 1.6 | 8.0 | 0.00 | 0.00 | 0.00 | 94 | 1019.5 |
| 20260831105511 | 20 | 13 | 1.6 | 6.4 | 0.00 | 0.00 | 0.00 | 94 | 1019.4 |
| 20260831105008 | 20 | 360 | 1.6 | 4.8 | 0.00 | 0.00 | 0.00 | 94 | 1019.3 |
| 20260831104535 | 20 | 18 | 1.6 | 4.8 | 0.00 | 0.00 | 0.00 | 94 | 1019.4 |
| 20260831104015 | 20 | 9 | 1.6 | 4.8 | 0.00 | 0.00 | 0.00 | 94 | 1019.3 |
| 20260831103514 | 20 | 360 | 0.0 | 4.8 | 0.00 | 0.00 | 0.00 | 93 | 1019.3 |
| 20260831103023 | 20 | 11 | 1.6 | 4.8 | 0.00 | 0.00 | 0.00 | 93 | 1019.3 |
| 20260831102514 | 20 | 22 | 0.0 | 4.8 | 0.00 | 0.00 | 0.00 | 93 | 1019.3 |
| 20260831102018 | 20 | 360 | 1.6 | 4.8 | 0.00 | 0.00 | 0.00 | 93 | 1019.4 |
| 20260831101521 | 20 | 322 | 1.6 | 4.8 | 0.00 | 0.00 | 0.00 | 93 | 1019.3 |
| 20260831101013 | 20 | 328 | 1.6 | 4.8 | 0.00 | 0.00 | 0.00 | 93 | 1019.2 |
| 20260831100516 | 20 | 317 | 1.6 | 4.8 | 0.00 | 0.00 | 0.00 | 93 | 1019.1 |
| 20260831100032 | 20 | 318 | 1.6 | 6.4 | 0.00 | 0.00 | 0.00 | 93 | 1019.1 |
| 20260831095506 | 20 | 341 | 1.6 | 6.4 | 0.00 | 0.00 | 0.00 | 93 | 1019.1 |
| 20260831095013 | 20 | 331 | 1.6 | 8.0 | 0.00 | 0.00 | 0.00 | 93 | 1019.0 |
| 20260831094538 | 20 | 320 | 1.6 | 8.0 | 0.00 | 0.00 | 0.00 | 93 | 1019.0 |
| 20260831094010 | 20 | 298 | 1.6 | 6.4 | 0.00 | 0.00 | 0.00 | 93 | 1018.9 |
| 20260831093511 | 20 | 321 | 0.0 | 6.4 | 0.00 | 0.00 | 0.00 | 93 | 1019.0 |
| 20260831093031 | 20 | 5 | 1.6 | 6.4 | 0.00 | 0.00 | 0.00 | 93 | 1019.1 |
| 20260831092516 | 21 | 306 | 1.6 | 8.0 | 0.00 | 0.00 | 0.00 | 93 | 1019.1 |
| 20260831092005 | 20 | 324 | 3.2 | 8.0 | 0.00 | 0.00 | 0.00 | 93 | 1019.1 |
| 20260831091538 | 21 | 310 | 1.6 | 6.4 | 0.00 | 0.00 | 0.00 | 92 | 1019.2 |
| 20260831091014 | 20 | 306 | 1.6 | 6.4 | 0.00 | 0.00 | 0.00 | 92 | 1019.2 |
| 20260831090518 | 21 | 299 | 1.6 | 11.3 | 0.00 | 0.00 | 0.00 | 92 | 1019.2 |
| 20260831090023 | 20 | 325 | 3.2 | 11.3 | 0.00 | 0.00 | 0.00 | 92 | 1019.1 |
| 20260831085518 | 20 | 323 | 4.8 | 8.0 | 0.00 | 0.00 | 0.00 | 92 | 1019.2 |
| 20260831085016 | 20 | 323 | 1.6 | 6.4 | 0.00 | 0.00 | 0.00 | 92 | 1019.2 |
| 20260831084536 | 21 | 292 | 3.2 | 8.0 | 0.00 | 0.00 | 0.00 | 92 | 1019.2 |
| 20260831084003 | 21 | 308 | 3.2 | 8.0 | 0.00 | 0.00 | 0.00 | 92 | 1019.2 |
| 20260831083504 | 21 | 310 | 4.8 | 8.0 | 0.00 | 0.00 | 0.00 | 92 | 1019.3 |
| 20260831083012 | 21 | 325 | 3.2 | 8.0 | 0.00 | 0.00 | 0.00 | 92 | 1019.3 |
| 20260831082510 | 21 | 309 | 1.6 | 8.0 | 0.00 | 0.00 | 0.00 | 92 | 1019.2 |
| 20260831082006 | 21 | 301 | 3.2 | 8.0 | 0.00 | 0.00 | 0.00 | 92 | 1019.2 |
| 20260831081507 | 21 | 322 | 3.2 | 8.0 | 0.00 | 0.00 | 0.00 | 92 | 1019.2 |
| 20260831081005 | 21 | 314 | 1.6 | 8.0 | 0.00 | 0.00 | 0.00 | 92 | 1019.2 |
| 20260831080504 | 21 | 319 | 3.2 | 8.0 | 0.00 | 0.00 | 0.00 | 92 | 1019.2 |
| 20260831080009 | 21 | 332 | 3.2 | 8.0 | 0.00 | 0.00 | 0.00 | 92 | 1019.2 |
| 20260831075505 | 21 | 314 | 3.2 | 11.3 | 0.00 | 0.00 | 0.00 | 91 | 1019.2 |
| 20260831075006 | 21 | 311 | 6.4 | 11.3 | 0.00 | 0.00 | 0.00 | 91 | 1019.2 |
| 20260831074504 | 21 | 308 | 3.2 | 8.0 | 0.00 | 0.00 | 0.00 | 91 | 1019.2 |
| 20260831074005 | 21 | 305 | 3.2 | 8.0 | 0.00 | 0.00 | 0.00 | 91 | 1019.1 |
| 20260831073506 | 21 | 311 | 3.2 | 8.0 | 0.00 | 0.00 | 0.00 | 91 | 1019.2 |
| 20260831073024 | 21 | 302 | 3.2 | 12.9 | 0.00 | 0.00 | 0.00 | 91 | 1019.2 |
| 20260831072505 | 21 | 289 | 3.2 | 12.9 | 0.00 | 0.00 | 0.00 | 91 | 1019.2 |
| 20260831072004 | 21 | 305 | 3.2 | 8.0 | 0.00 | 0.00 | 0.00 | 91 | 1019.2 |
| 20260831071518 | 21 | 311 | 3.2 | 9.7 | 0.00 | 0.00 | 0.00 | 91 | 1019.2 |
| 20260831071014 | 21 | 306 | 4.8 | 12.9 | 0.00 | 0.00 | 0.00 | 90 | 1019.2 |
| 20260831070503 | 21 | 299 | 4.8 | 12.9 | 0.00 | 0.00 | 0.00 | 90 | 1019.3 |
| 20260831070008 | 21 | 311 | 3.2 | 6.4 | 0.00 | 0.00 | 0.00 | 90 | 1019.3 |
| 20260831065504 | 21 | 316 | 3.2 | 6.4 | 0.00 | 0.00 | 0.00 | 90 | 1019.4 |
| 20260831065004 | 21 | 317 | 1.6 | 4.8 | 0.00 | 0.00 | 0.00 | 90 | 1019.5 |
| 20260831064512 | 21 | 312 | 3.2 | 6.4 | 0.00 | 0.00 | 0.00 | 90 | 1019.5 |
| 20260831064006 | 21 | 311 | 3.2 | 8.0 | 0.00 | 0.00 | 0.00 | 90 | 1019.5 |
| 20260831063507 | 21 | 317 | 1.6 | 8.0 | 0.00 | 0.00 | 0.00 | 90 | 1019.6 |
| 20260831063008 | 21 | 308 | 3.2 | 8.0 | 0.00 | 0.00 | 0.00 | 90 | 1019.6 |
| 20260831062506 | 21 | 323 | 4.8 | 8.0 | 0.00 | 0.00 | 0.00 | 90 | 1019.8 |
| 20260831062008 | 21 | 317 | 3.2 | 11.3 | 0.00 | 0.00 | 0.00 | 90 | 1019.8 |
| 20260831061524 | 21 | 311 | 4.8 | 11.3 | 0.00 | 0.00 | 0.00 | 90 | 1019.8 |
| 20260831061005 | 21 | 304 | 3.2 | 8.0 | 0.00 | 0.00 | 0.00 | 90 | 1019.8 |
| 20260831060507 | 21 | 333 | 3.2 | 6.4 | 0.00 | 0.00 | 0.00 | 90 | 1019.9 |
| 20260831060029 | 21 | 313 | 3.2 | 6.4 | 0.00 | 0.00 | 0.00 | 90 | 1020.0 |
| 20260831055503 | 21 | 291 | 3.2 | 6.4 | 0.00 | 0.00 | 0.00 | 90 | 1019.9 |
| 20260831055012 | 21 | 281 | 3.2 | 6.4 | 0.00 | 0.00 | 0.00 | 89 | 1019.8 |
| 20260831054510 | 21 | 294 | 1.6 | 4.8 | 0.00 | 0.00 | 0.00 | 89 | 1019.9 |
| 20260831054003 | 21 | 305 | 1.6 | 4.8 | 0.00 | 0.00 | 0.00 | 89 | 1019.9 |
| 20260831053503 | 21 | 305 | 1.6 | 4.8 | 0.00 | 0.00 | 0.00 | 89 | 1020.0 |
| 20260831053015 | 21 | 304 | 3.2 | 4.8 | 0.00 | 0.00 | 0.00 | 89 | 1020.0 |
| 20260831052508 | 21 | 296 | 1.6 | 6.4 | 0.00 | 0.00 | 0.00 | 89 | 1020.0 |
| 20260831052007 | 21 | 327 | 0.0 | 8.0 | 0.00 | 0.00 | 0.00 | 90 | 1020.1 |
| 20260831051528 | 21 | 303 | 3.2 | 8.0 | 0.00 | 0.00 | 0.00 | 90 | 1019.9 |
| 20260831051011 | 21 | 331 | 0.0 | 6.4 | 0.00 | 0.00 | 0.00 | 91 | 1019.9 |
| 20260831050510 | 21 | 360 | 1.6 | 6.4 | 0.00 | 0.00 | 0.00 | 91 | 1019.9 |
| 20260831050010 | 21 | 360 | 1.6 | 6.4 | 0.00 | 0.00 | 0.00 | 91 | 1020.0 |
| 20260831045507 | 21 | 317 | 1.6 | 6.4 | 0.00 | 0.00 | 0.00 | 91 | 1019.8 |
| 20260831045016 | 21 | 324 | 1.6 | 6.4 | 0.00 | 0.00 | 0.00 | 91 | 1019.7 |
| 20260831044532 | 21 | 322 | 1.6 | 8.0 | 0.00 | 0.00 | 0.00 | 91 | 1019.7 |
| 20260831044006 | 21 | 302 | 3.2 | 8.0 | 0.00 | 0.00 | 0.00 | 91 | 1019.8 |
| 20260831043510 | 21 | 313 | 3.2 | 8.0 | 0.00 | 0.00 | 0.00 | 91 | 1019.8 |
| 20260831043031 | 21 | 318 | 3.2 | 6.4 | 0.00 | 0.00 | 0.00 | 91 | 1019.9 |
| 20260831042507 | 21 | 317 | 3.2 | 6.4 | 0.00 | 0.00 | 0.00 | 91 | 1020.0 |
| 20260831042007 | 21 | 288 | 1.6 | 6.4 | 0.00 | 0.00 | 0.00 | 91 | 1020.1 |
| 20260831041518 | 21 | 302 | 3.2 | 6.4 | 0.00 | 0.00 | 0.00 | 91 | 1020.2 |
| 20260831041008 | 21 | 289 | 1.6 | 4.8 | 0.00 | 0.00 | 0.00 | 91 | 1020.2 |
| 20260831040504 | 21 | 255 | 1.6 | 4.8 | 0.00 | 0.00 | 0.00 | 91 | 1020.1 |
| 20260831040034 | 21 | 255 | 1.6 | 3.2 | 0.00 | 0.00 | 0.00 | 91 | 1020.1 |
| 20260831035515 | 21 | 255 | 1.6 | 3.2 | 0.00 | 0.00 | 0.00 | 91 | 1020.1 |
| 20260831035013 | 21 | 255 | 0.0 | 3.2 | 0.00 | 0.00 | 0.00 | 90 | 1020.2 |
| 20260831034517 | 21 | 255 | 0.0 | 3.2 | 0.00 | 0.00 | 0.00 | 90 | 1020.3 |
| 20260831034011 | 21 | 255 | 0.0 | 3.2 | 0.00 | 0.00 | 0.00 | 90 | 1020.3 |
| 20260831033515 | 21 | 255 | 1.6 | 4.8 | 0.00 | 0.00 | 0.00 | 90 | 1020.3 |
| 20260831033035 | 21 | 255 | 1.6 | 4.8 | 0.00 | 0.00 | 0.00 | 90 | 1020.4 |
| 20260831032513 | 22 | 281 | 1.6 | 4.8 | 0.00 | 0.00 | 0.00 | 90 | 1020.3 |
| 20260831032014 | 22 | 281 | 1.6 | 4.8 | 0.00 | 0.00 | 0.00 | 89 | 1020.4 |
| 20260831031531 | 22 | 289 | 0.0 | 4.8 | 0.00 | 0.00 | 0.00 | 89 | 1020.5 |
| 20260831031007 | 22 | 286 | 3.2 | 6.4 | 0.00 | 0.00 | 0.00 | 89 | 1020.5 |